FENGYUN 1C DEB, 36203

Orbit data source: Space-Track

FENGYUN 1C DEB, 36203 is space debris in SSO originally from a launch on Mon, 10 May 1999 UTC launched from the Taiyaun Space Center, China (TSC). Fengyun 1C debris stems from the Chinese weather satellite Fengyun-1C, which was intentionally destroyed by a Chinese anti-satellite missile in 2007. This event dramatically increased the amount of space debris, with thousands of trackable fragments posing hazards to satellites and human spaceflight. The Fengyun 1C debris cloud has become a focal point in discussions about space sustainability and the need for international regulations to prevent the creation of new debris.

Loading next visibility...
Identifier
36203, 1999-025DUC
Orbit
SSO
Country
Flag of CNCN / PRC
Related business
Manufacturer
Unknown
Mission
Spacecraft
Bus & Motor
Unknown
Mass
Unknown
Launch date (UTC)
1999-05-10 (27 years ago)
Launch vehicle
Unknown
Launch site
Taiyaun Space Center, China (TSC)
Object type
Payload
Rocket body
Debris
Shape & HBR
Unknown shape, 0.1 m
Radar Cross Section
Small (<0.1 m²)

Expand to show TLE details & history
Last TLE update: 15 hours ago

TLE from 15 hours ago
0 FENGYUN 1C DEB
1 36203U 99025DUC 26208.66676603  .00007562  00000-0  89324-3 0  9996
2 36203  99.1143 188.0655 0077198 155.7705 204.7167 14.82885286667871
Epoch: 2026-07-27T16:00Z
TLE epoch observation values (Epoch: 2026-07-27T16:00:08.584Z)
Latitude
0.00001°
Longitude
2.68267°
Altitude
672.377 km
Speed
7.494 km/s
True Right ascension
12h 32m 15s
True Declination
0° 00' 00"
Sunlit
Object was in daylight at epoch
Visualization orbit readout
Latitude
Unknown
Longitude
Unknown
Altitude
Unknown
Speed
Unknown
Apparent Right ascension
Unknown
Apparent Declination
Unknown
Sunlit
N/A
Visualization observer readout
Local Sidereal Time
20:34:42
Azimuth
Unknown
Elevation
Unknown
Doppler factor
Unknown
Orbital elements
Apogee altitude
671.33 km
Perigee altitude
563.323 km
Semi-major axis
6,995.464 km
Eccentricity
0.00772
Inclination
99.1143°
RAAN
188.0655°
Arg. of periapsis
155.7705°
True anomaly
204.35003°
Mean anomaly
204.7167°
Eccentric anomaly
204.53304°
Mean motion
3.70953 °/min
Orbital period
97.05 mins
BSTAR
0.00089324
Loading maneuver chart data...
Computing Atmospheric mass density...

Documentation

Showing up to 5 results
|